EW5544 Weather Reports


Display with metric or nautical units.
time (UTC)temp
F
wind
direction
speed
MPH
gust
MPH
rain 1hr
in
rain 24hr
in
rain mn
in
humidity
%
barometer
mb
20260508024510 55 318 1.0 3.0 0.00 0.01 0.00 82 1009.5
20260508023008 55 320 1.0 3.0 0.00 0.01 0.00 82 1009.6
20260508021608 56 320 1.0 3.0 0.00 0.01 0.00 81 1009.6
20260508020004 55 323 2.0 4.0 0.00 0.01 0.00 82 1009.8
20260508014505 55 314 1.0 3.0 0.00 0.05 0.00 82 1010.0
20260508013001 55 301 0.0 2.0 0.00 0.05 0.00 82 1010.1
20260508011600 55 301 0.0 2.0 0.00 0.05 0.00 82 1010.2
20260508010109 55 301 0.0 1.0 0.00 0.05 0.00 82 1010.3
20260508004556 55 301 0.0 2.0 0.00 0.05 0.00 81 1010.3
20260508003103 55 301 0.0 2.0 0.00 0.05 0.00 80 1010.4
20260508001558 56 335 2.0 3.0 0.00 0.05 0.00 81 1010.5
20260508000057 55 337 1.0 2.0 0.00 0.05 0.00 81 1010.7
20260507234555 55 337 0.0 1.0 0.00 0.05 0.00 81 1010.8
20260507233054 56 337 0.0 1.0 0.00 0.05 0.00 79 1010.9
20260507231556 57 327 2.0 4.0 0.00 0.05 0.00 79 1011.2
20260507230109 57 340 2.0 4.0 0.00 0.05 0.00 78 1011.4
20260507224553 56 360 2.0 3.0 0.00 0.05 0.00 79 1011.5
20260507223147 56 360 1.0 3.0 0.00 0.05 0.00 79 1011.7
20260507221551 57 355 1.0 3.0 0.00 0.05 0.00 77 1011.7
20260507220017 58 360 1.0 3.0 0.00 0.05 0.00 75 1011.5
20260507214516 59 327 1.0 3.0 0.00 0.05 0.00 73 1011.5
20260507213016 59 344 1.0 5.0 0.00 0.05 0.00 73 1011.5
20260507211616 58 360 1.0 2.0 0.00 0.05 0.00 74 1011.6
20260507210018 59 360 0.0 2.0 0.00 0.05 0.00 71 1011.6
20260507204518 59 360 1.0 3.0 0.00 0.05 0.00 70 1011.6
20260507203029 59 360 0.0 1.0 0.00 0.05 0.00 73 1011.6
20260507201622 59 360 1.0 3.0 0.00 0.05 0.00 71 1011.7
20260507200033 60 360 0.0 1.0 0.00 0.05 0.00 73 1011.7
20260507194517 59 360 1.0 2.0 0.00 0.05 0.00 74 1011.4
20260507193046 59 360 1.0 2.0 0.00 0.05 0.00 75 1011.4
20260507191539 60 360 0.0 1.0 0.00 0.05 0.00 73 1011.4
20260507190040 61 360 1.0 3.0 0.00 0.05 0.00 73 1011.2
20260507184538 61 360 1.0 2.0 0.00 0.05 0.00 75 1011.3
20260507183042 61 355 1.0 2.0 0.00 0.05 0.00 73 1011.4
20260507181541 63 355 1.0 2.0 0.00 0.05 0.00 71 1011.4
20260507180041 65 329 0.0 3.0 0.00 0.05 0.00 67 1011.3
20260507174551 66 338 1.0 4.0 0.00 0.05 0.00 65 1011.2
20260507173041 67 304 0.0 0.0 0.00 0.05 0.00 64 1011.2
20260507171547 68 294 0.0 0.0 0.00 0.05 0.00 63 1011.0
20260507170045 68 288 0.0 0.0 0.00 0.05 0.00 64 1011.1
20260507164540 66 323 0.0 2.0 0.00 0.05 0.00 68 1011.0
20260507163035 66 323 0.0 2.0 0.00 0.05 0.00 65 1011.0
20260507161540 65 348 0.0 5.0 0.00 0.05 0.00 63 1010.9
20260507160037 0 0.0 0.0 0.00 0.05 0.00 1011.1
20260507154530 0 0.0 0.0 0.00 0.05 0.00 1011.1
20260507153028 0 0.0 0.0 0.00 0.05 0.00 1011.2
20260507151525 0 0.0 0.0 0.00 0.05 0.00 1011.1
20260507150019 0 0.0 0.0 0.00 0.05 0.00 1011.1
20260507144525 70 83 3.0 7.0 0.00 0.05 0.00 52 1011.2
20260507143013 70 109 1.0 6.0 0.00 0.05 0.00 55 1011.5
20260507141512 71 162 0.0 0.0 0.00 0.05 0.00 54 1011.6
20260507140011 72 199 0.0 0.0 0.00 0.05 0.00 53 1011.8
20260507134510 69 207 0.0 0.0 0.00 0.05 0.00 59 1012.1
20260507133010 68 136 0.0 0.0 0.00 0.05 0.00 57 1012.2
20260507131521 68 163 3.0 9.0 0.00 0.05 0.00 59 1012.3
20260507130009 70 138 2.0 9.0 0.00 0.05 0.00 56 1012.4
20260507124508 70 180 3.0 10.0 0.00 0.05 0.00 56 1012.4
20260507123012 72 173 1.0 9.0 0.00 0.05 0.00 57 1012.3
20260507121510 71 186 1.0 5.0 0.00 0.05 0.00 52 1012.3
20260507120008 70 105 1.0 4.0 0.00 0.05 0.00 53 1012.3
20260507114507 70 273 0.0 0.0 0.00 0.05 0.00 60 1012.4
20260507113004 70 248 1.0 4.0 0.00 0.05 0.00 56 1012.5
20260507111507 70 140 1.0 6.0 0.00 0.05 0.00 57 1012.5
20260507110059 69 187 2.0 6.0 0.00 0.05 0.00 59 1012.7
20260507104556 67 147 4.0 9.0 0.00 0.05 0.00 65 1012.9
20260507103052 67 159 1.0 4.0 0.00 0.05 0.00 64 1012.9
20260507101558 67 169 2.0 7.0 0.00 0.05 0.00 65 1013.1
20260507100054 0 0.0 0.0 0.00 0.05 0.00 1013.3
20260507094541 65 119 0.0 0.0 0.00 0.05 0.00 70 1013.2
20260507093039 65 192 0.0 0.0 0.00 0.05 0.00 73 1013.2
20260507091538 64 148 0.0 9.0 0.00 0.05 0.00 72 1013.4
20260507090036 65 155 0.0 8.0 0.00 0.05 0.00 73 1013.3
20260507084541 64 183 2.0 7.0 0.00 0.05 0.00 78 1013.3
20260507083046 63 183 2.0 6.0 0.00 0.05 0.00 76 1013.4
20260507081530 62 175 2.0 7.0 0.00 0.05 0.00 78 1013.4
20260507080028 62 154 2.0 7.0 0.00 0.05 0.00 81 1013.4
20260507074525 60 168 2.0 7.0 0.00 0.05 0.00 82 1013.4
20260507073022 61 135 3.0 8.0 0.00 0.05 0.00 83 1013.3
20260507071518 59 158 1.0 6.0 0.00 0.05 0.00 85 1013.2
20260507070016 59 198 3.0 6.0 0.00 0.05 0.00 86 1013.3
20260507064511 59 172 2.0 5.0 0.00 0.06 0.00 90 1013.2
20260507063011 57 169 1.0 3.0 0.00 0.06 0.00 91 1013.2
20260507061507 57 202 1.0 4.0 0.00 0.06 0.00 92 1013.2
20260507060014 56 159 2.0 6.0 0.00 0.06 0.00 92 1013.2
20260507054502 55 183 2.0 4.0 0.00 0.06 0.06 93 1013.0
20260507053100 55 74 5.0 8.0 0.00 0.06 0.06 93 1012.8
20260507051605 54 146 1.0 5.0 0.00 0.06 0.06 93 1012.9
20260507050100 54 111 1.0 4.0 0.00 0.06 0.06 93 1012.8
20260507044558 54 130 0.0 4.0 0.00 0.06 0.06 93 1012.7
20260507043103 54 96 2.0 4.0 0.00 0.06 0.06 93 1012.6
20260507041558 53 113 2.0 5.0 0.00 0.06 0.06 93 1012.5
20260507040059 53 120 3.0 8.0 0.00 0.06 0.06 93 1012.3
20260507034557 53 148 1.0 3.0 0.00 0.06 0.06 92 1012.2
20260507033056 53 136 3.0 10.0 0.00 0.06 0.06 92 1012.2
20260507031554 54 112 2.0 10.0 0.00 0.06 0.06 92 1012.3
20260507030053 54 164 2.0 10.0 0.00 0.06 0.06 92 1012.2